SCP
0 0 0 0 0 0 0 0 0 0 0 0 0 0 0 0 0 0 0 0 -0 -0
0 0 0 0 0 0 0 0 0 0 0 0 0 0 0 0 0 0 -0 -0 0 0
0 0 0 0 0 0 0 0 0 0 0 0 0 0 0 0 0 -0 0 0 0 -0
0 0 0 0 0 0 0 0 0 0 0 0 0 0 0 0 -0 0 0 0 0 -0
0 0 0 0 0 0 0 0 0 0 0 0 0 0 0 -0 0 0 0 0 0 -0
0 0 0 0 0 0 0 0 0 0 0 0 0 0 0 0 0 0 0 0 0 0
0 0 0 0 0 0 0 0 0 0 0 0 0 0 0 0 0 0 0 0 0 0
0 0 0 0 0 0 0 0 0 0 0 0 0 0 0 0 0 0 0 0 0 0
0 0 0 0 0 0 0 0 0 0 0 0 0 0 0 0 0 0 0 0 0 0
0 0 0 0 0 0 0 0 0 0 0 0 0 0 0 0 0 0 0 0 0 0
0 0 0 0 0 0 0 0 0 0 0 0 0 0 0 0 0 0 0 0 0 0
0 0 0 0 0 0 0 0 0 0 0 0 0 0 0 0 0 0 0 0 0 0
0 0 0 0 0 0 0 0 0 0 0 0 0 0 0 0 0 0 0 0 0 0
0 0 0 0 0 0 0 0 0 0 0 0 0 0 0 0 0 0 0 0 0 0
Wind_Speed_500mb
61 66 70 73 78 73 71 67 60 55 50 45 39 33 27 22 19 21 22 25 28 29
59 67 73 76 74 66 61 60 55 51 48 45 39 32 27 23 23 23 27 26 25 28
61 62 70 74 69 68 66 66 59 53 48 45 38 33 27 25 25 25 19 20 25 28
63 68 73 70 64 67 62 55 54 50 45 41 37 34 28 21 23 10 14 20 22 26
64 68 73 74 74 66 65 59 54 50 46 42 38 27 15 22 5 11 14 16 18 25
66 72 77 77 76 73 65 62 58 52 46 42 30 19 25 2 16 14 12 11 14 22
69 75 81 82 80 72 66 64 61 55 48 35 17 24 9 19 20 16 10 7 10 18
68 76 82 86 78 76 77 67 64 60 49 22 27 20 21 23 23 17 10 3 7 13
75 82 89 85 82 81 67 72 68 61 34 30 32 25 27 30 25 18 12 3 5 11
82 90 92 92 89 69 80 76 69 53 35 44 36 34 36 33 28 21 13 4 5 11
89 96 101 97 81 83 82 77 72 46 50 50 40 41 41 36 32 24 15 10 8 10
93 100 100 94 89 93 87 81 58 52 58 53 42 45 45 40 32 25 19 16 15 16
93 97 98 97 96 89 86 79 65 62 60 50 47 52 48 41 35 29 24 20 21 23
90 96 97 101 91 90 93 75 71 65 68 58 55 56 51 45 39 32 29 24 26 29
Wind_Direction_500mb
227 216 205 201 194 183 181 175 172 170 168 164 158 153 142 129 109 87 70 60 50 38
224 219 212 198 187 182 180 177 175 172 168 162 156 145 133 118 98 87 74 53 48 43
222 216 206 200 193 185 189 180 172 171 169 159 150 140 126 110 94 74 55 61 56 45
218 209 205 200 189 188 182 180 177 170 164 156 146 133 118 93 84 43 80 72 61 49
216 209 198 192 189 189 185 183 176 173 167 158 145 126 109 103 41 128 105 83 64 46
212 205 201 194 190 188 191 185 181 176 171 158 143 132 125 137 164 146 127 97 63 43
215 209 199 192 193 188 192 188 181 175 171 158 149 149 185 183 174 169 153 100 47 31
213 206 197 192 191 197 188 189 183 178 170 169 168 196 191 194 187 181 176 142 37 23
212 204 195 195 198 190 193 189 183 181 176 182 195 198 201 197 194 191 194 202 9 1
210 202 198 197 192 199 197 190 186 184 188 196 207 201 208 199 199 205 211 236 325 345
210 206 198 195 198 201 195 193 190 191 196 209 207 208 207 206 207 211 223 247 285 318
211 203 198 199 200 201 196 194 194 205 207 222 203 213 216 212 213 222 236 255 281 301
211 202 202 203 205 202 201 195 206 205 214 221 210 222 220 218 222 230 243 258 278 296
211 205 203 206 205 210 201 200 213 208 219 219 214 225 224 225 230 238 248 259 275 286
Wind_Speed_850mb
61 66 70 73 78 73 71 67 60 55 50 45 39 33 27 22 19 21 22 25 28 29
59 67 73 76 74 66 61 60 55 51 48 45 39 32 27 23 23 23 27 26 25 28
61 62 70 74 69 68 66 66 59 53 48 45 38 33 27 25 25 25 19 20 25 28
63 68 73 70 64 67 62 55 54 50 45 41 37 34 28 21 23 10 14 20 22 26
64 68 73 74 74 66 65 59 54 50 46 42 38 27 15 22 5 11 14 16 18 25
66 72 77 77 76 73 65 62 58 52 46 42 30 19 25 2 16 14 12 11 14 22
69 75 81 82 80 72 66 64 61 55 48 35 17 24 9 19 20 16 10 7 10 18
68 76 82 86 78 76 77 67 64 60 49 22 27 20 21 23 23 17 10 3 7 13
75 82 89 85 82 81 67 72 68 61 34 30 32 25 27 30 25 18 12 3 5 11
82 90 92 92 89 69 80 76 69 53 35 44 36 34 36 33 28 21 13 4 5 11
89 96 101 97 81 83 82 77 72 46 50 50 40 41 41 36 32 24 15 10 8 10
93 100 100 94 89 93 87 81 58 52 58 53 42 45 45 40 32 25 19 16 15 16
93 97 98 97 96 89 86 79 65 62 60 50 47 52 48 41 35 29 24 20 21 23
90 96 97 101 91 90 93 75 71 65 68 58 55 56 51 45 39 32 29 24 26 29
Wind_Direction_850mb
227 216 205 201 194 183 181 175 172 170 168 164 158 153 142 129 109 87 70 60 50 38
224 219 212 198 187 182 180 177 175 172 168 162 156 145 133 118 98 87 74 53 48 43
222 216 206 200 193 185 189 180 172 171 169 159 150 140 126 110 94 74 55 61 56 45
218 209 205 200 189 188 182 180 177 170 164 156 146 133 118 93 84 43 80 72 61 49
216 209 198 192 189 189 185 183 176 173 167 158 145 126 109 103 41 128 105 83 64 46
212 205 201 194 190 188 191 185 181 176 171 158 143 132 125 137 164 146 127 97 63 43
215 209 199 192 193 188 192 188 181 175 171 158 149 149 185 183 174 169 153 100 47 31
213 206 197 192 191 197 188 189 183 178 170 169 168 196 191 194 187 181 176 142 37 23
212 204 195 195 198 190 193 189 183 181 176 182 195 198 201 197 194 191 194 202 9 1
210 202 198 197 192 199 197 190 186 184 188 196 207 201 208 199 199 205 211 236 325 345
210 206 198 195 198 201 195 193 190 191 196 209 207 208 207 206 207 211 223 247 285 318
211 203 198 199 200 201 196 194 194 205 207 222 203 213 216 212 213 222 236 255 281 301
211 202 202 203 205 202 201 195 206 205 214 221 210 222 220 218 222 230 243 258 278 296
211 205 203 206 205 210 201 200 213 208 219 219 214 225 224 225 230 238 248 259 275 286